Weather WX

World > North America > United States > Mississippi

Ms Valley State University, Mississippi Regional Weather

Lat: 33.50N, Lon: 90.33W
Wx Zone: MSZ025
Feedback

Ms Valley State University, MS Regional Weather

Expires:201906181200;;676749
ASUS44 KJAN 181110
RWRMS 

MISSISSIPPI HOURLY WEATHER ROUNDUP
NATIONAL WEATHER SERVICE JACKSON MS
600 AM CDT TUE JUN 18 2019

NOTE: "FAIR: INDICATES FEW OR NO CLOUDS BELOW 12,000 FEET WITH NO
SIGNIFICANT WEATHER AND/OR OBSTRUCTIONS TO VISIBILITY.


MSZ001>002-007>008-010>013-018>021-025>028-034>036-181200-
NORTHWEST MISSISSIPPI
  
CITY           SKY/WX    TMP DP  RH WIND       PRES   REMARKS
BATESVILLE     CLOUDY    70  68  94 CALM      29.92R                  
CLARKSDALE     CLOUDY    72  72 100 CALM      29.91F                  
CLEVELAND      PTSUNNY   72  72 100 S3        29.90F                  
GREENWOOD      CLOUDY    73  71  93 CALM      29.92R                  
GREENVILLE     LGT RAIN  74  72  93 S6        29.89F                  
OLIVE BRANCH   CLOUDY    70 N/A N/A CALM      29.92S                  
OXFORD         CLOUDY    68  68 100 SE5       29.95R                  
TUNICA           N/A     70  70 100 S3        29.92S                  
WINONA         LGT RAIN  70  70 100 CALM      29.93S                  
$$


SKY/WX - Weather  TMP - Temperature  DP - Dew Point  RH - Relative Humidity
WIND - Wind Direction/Speed PRES - Barometric Pressure VSB - Visibility
WCI - Wind Chill Index E13G22 Wind - East Wind 13 mph/Gusts of 22 mph